STARLINK-6058, 56797

Orbit data source: Space-Track

STARLINK-6058, 56797 is a payload satellite owned by SpaceX/Seattle (US) in LEO that was launched on Wed, 31 May 2023 UTC via an FALCON 9 launch vehicle from the Air Force Western Test Range (AFWTR). Payload-class satellites include a variety of spacecraft equipped with specific instruments for various scientific and technological missions. These include communications satellites like Starlink; space stations such as the ISS; scientific satellites like the Hubble; Earth observation satellites from companies like Planet Labs, Umbra, and HawkEye 360; GPS; miniature CubeSats for education and research; and military/defense satellites.

Loading next visibility...
Identifier
56797, 2023-078AG
Orbit
LEO
Last TLE update
13 hours ago
Origin
Manufacturer
SpaceX/Seattle
Mission
Operational Commercial Communications
Bus & Motor
STARLINK, Unknown motor
Mass
305 kg wet, ~290 kg dry
Launch date (UTC)
2023-05-31 (2 years ago)
Launch vehicle
FALCON 9
Launch site
Air Force Western Test Range (AFWTR)
Object type
Payload
Rocket body
Debris
Shape & HBR
Box + 1 Pan, 9 m
Radar Cross Section
11.087 m², Large (>1 m²)

Expand to show TLE details & history

TLE from 13 hours ago
0 STARLINK-6058
1 56797U 23078AG  25131.45252990 -.00000773  00000-0 -56976-4 0  9998
2 56797  70.0010  26.6732 0003019 270.1069  89.9744 14.98329276107402
Epoch: 2025-05-11T10:51Z
Definitive object data (Epoch: 2025-05-11T10:51:38.583Z)
Latitude
-0.00003°
Longitude
-5.71733°
Altitude
574.482 km
Speed
7.574 km/s
True Right ascension
01h 46m 41s
True Declination
0° 00' 00"
Sunlit
Object was in daylight at TLE epoch
Visualization TLE readout
Latitude
53.01463°
Longitude
144.1553°
Altitude
581.885 km
Speed
7.574 km/s
Apparent Right ascension
16h 48m 39s
Apparent Declination
21° 12' 22"
Sunlit
Object is in daylight
Visualization observer readout
Local Sidereal Time
08:32:54
Azimuth
51.672° ENE
Elevation
-9.621°
Doppler factor
1
Orbital elements
Apogee altitude
572.104 km
Perigee altitude
567.909 km
Semi-major axis
6,948.143 km
Eccentricity
0.0003019
Inclination
70.001°
RAAN
26.6732°
Arg. of periapsis
270.1069°
True anomaly
90.009°
Mean anomaly
89.9744°
Eccentric anomaly
89.9917°
Mean motion
3.74749 °/min
BSTAR
-0.000056976
Orbital period
96.06 mins
Loading maneuver chart data...
Loading SW <> Apogee altitude chart data...
Loading historical data...
Loading historical data...
Loading historical data...
Loading historical data...
Loading historical data...
Loading historical data...
Loading historical data...

STARLINK-6058 Visibility forecast

Observer location: undefined°, undefined°

Span
Click to sort rows by Start time (UTC) header in descending order
Start Az.
Max El. time (UTC)
Max El. Az.
Max El.
End time (UTC)
End Az.
7 mins2025-05-12 03:25:15.651Z357.251° N2025-05-12 03:28:15.651Z48.922° ENE28.252°2025-05-12 03:32:15.651Z123.836° SE
4 mins2025-05-12 05:05:15.651Z281.8° WNW2025-05-12 05:06:15.651Z263.58° W18.597°2025-05-12 05:09:15.651Z212.998° SW
4 mins2025-05-12 17:27:15.651Z135.462° SSE2025-05-12 17:28:15.651Z116.163° SE20.716°2025-05-12 17:31:15.651Z61.016° ENE
6 mins2025-05-12 19:04:15.651Z249.129° W2025-05-12 19:07:15.651Z311.633° NW25.705°2025-05-12 19:10:15.651Z0.878° NNE
|